CZ-6A DEB, 60781

Orbit data source: Space-Track

CZ-6A DEB, 60781 is space debris in LEO originally from a launch on Tue, 06 Aug 2024 UTC launched from the Taiyaun Space Center, China (TSC). Debris objects in space refer to the collection of defunct objects orbiting the Earth. Examples of debris include non-operational satellites, rocket bodies, and fragments generated from explosions, collisions, or faulty payload assembly.

Loading next visibility...
Identifier
60781, 2024-140FG
Orbit
LEO
Country
Flag of CNCN / PRC
Related business
Manufacturer
SAST
Mission
Spacecraft
Bus & Motor
Unknown
Mass
Unknown
Launch date (UTC)
2024-08-06 (2 years ago)
Launch vehicle
Unknown
Launch site
Taiyaun Space Center, China (TSC)
Object type
Payload
Rocket body
Debris
Shape & HBR
Unknown shape, 0.2 m
Radar Cross Section
Medium (>0.1 m² and <1 m²)

Expand to show TLE details & history
Last TLE update: 12 hours ago

TLE from 12 hours ago
0 CZ-6A DEB
1 60781U 24140FG  26171.32979998  .00001734  00000-0  57443-3 0  9997
2 60781  88.9443 269.3026 0199059  79.2302 283.1230 14.26764465 96340
Epoch: 2026-06-20T07:54Z
TLE epoch observation values (Epoch: 2026-06-20T07:54:54.718Z)
Latitude
-0.00004°
Longitude
-117.97137°
Altitude
775.887 km
Speed
7.481 km/s
True Right ascension
17h 57m 12s
True Declination
0° 00' 00"
Sunlit
Object was in full shadow at epoch
Visualization orbit readout
Latitude
Unknown
Longitude
Unknown
Altitude
Unknown
Speed
Unknown
Apparent Right ascension
Unknown
Apparent Declination
Unknown
Sunlit
N/A
Visualization observer readout
Local Sidereal Time
07:16:25
Azimuth
Unknown
Elevation
Unknown
Doppler factor
Unknown
Orbital elements
Apogee altitude
942.384 km
Perigee altitude
656.629 km
Semi-major axis
7,177.643 km
Eccentricity
0.01991
Inclination
88.9443°
RAAN
269.3026°
Arg. of periapsis
79.2302°
True anomaly
280.88947°
Mean anomaly
283.123°
Eccentric anomaly
282.00743°
Mean motion
3.5692 °/min
Orbital period
100.86 mins
BSTAR
0.00057443
Loading maneuver chart data...
Computing Atmospheric mass density...
Loading historical data...
Loading historical data...
Loading historical data...
Loading historical data...
Loading historical data...
Loading historical data...
Loading historical data...

Documentation

Showing up to 5 results
|